STARLINK-32641, 62236

Orbit data source: Space-Track

STARLINK-32641, 62236 is a payload satellite owned by SpaceX/Seattle (US) in LEO that was launched on Thu, 05 Dec 2024 UTC via an FALCON 9 launch vehicle from the Air Force Western Test Range (AFWTR). Payload-class satellites include a variety of spacecraft equipped with specific instruments for various scientific and technological missions. These include communications satellites like Starlink; space stations such as the ISS; scientific satellites like the Hubble; Earth observation satellites from companies like Planet Labs, Umbra, and HawkEye 360; GPS; miniature CubeSats for education and research; and military/defense satellites.

Loading next visibility...
Identifier
62236, 2024-231U
Orbit
LEO
Country
Flag of USUS
Related business
Manufacturer
SpaceX/Seattle
Mission
Operational Commercial Communications
Bus & Motor
STARLINK V2M, Unknown motor
Mass
730 kg wet, ~700 kg dry
Launch date (UTC)
2024-12-05 (1 year ago)
Launch vehicle
FALCON 9
Launch site
Air Force Western Test Range (AFWTR)
Object type
Payload
Rocket body
Debris
Shape & HBR
Box + 2 Pan, 17.7 m
Radar Cross Section
33.884 m², Large (>1 m²)

Expand to show TLE details & history
Last TLE update: 18 hours ago

TLE from 18 hours ago
0 STARLINK-32641
1 62236U 24231U   26033.32585872  .00021503  00000-0  73580-3 0  9992
2 62236  53.1621  11.1353 0001256  99.1469 260.9674 15.30209680 66522
Epoch: 2026-02-02T07:49Z
TLE epoch observation values (Epoch: 2026-02-02T07:49:14.193Z)
Latitude
-0.00001°
Longitude
121.3034°
Altitude
476.221 km
Speed
7.629 km/s
True Right ascension
00h 44m 32s
True Declination
0° 00' 00"
Sunlit
Object was in daylight at epoch
Visualization orbit readout
Latitude
Unknown
Longitude
Unknown
Altitude
Unknown
Speed
Unknown
Apparent Right ascension
Unknown
Apparent Declination
Unknown
Sunlit
N/A
Visualization observer readout
Local Sidereal Time
03:46:49
Azimuth
Unknown
Elevation
Unknown
Doppler factor
Unknown
Orbital elements
Apogee altitude
476.303 km
Perigee altitude
474.581 km
Semi-major axis
6,853.579 km
Eccentricity
0.00013
Inclination
53.1621°
RAAN
11.1353°
Arg. of periapsis
99.1469°
True anomaly
260.95319°
Mean anomaly
260.9674°
Eccentric anomaly
260.96029°
Mean motion
3.82531 °/min
Orbital period
94.11 mins
BSTAR
0.0007358
Loading maneuver chart data...
Computing Atmospheric mass density...
Loading historical data...
Loading historical data...
Loading historical data...
Loading historical data...
Loading historical data...
Loading historical data...
Loading historical data...

Documentation

Showing up to 5 results
|